| time (UTC) | temp C | wind direction | speed KPH | gust KPH | rain 1hr cm | rain 24hr cm | rain mn cm | humidity % | barometer mb |
| 20260510104522 | 16 | 18 | 3.2 | 6.4 | 0.00 | 0.00 | 0.00 | 64 | 1013.3 |
| 20260510103020 | 16 | 6 | 3.2 | 6.4 | 0.00 | 0.00 | 0.00 | 64 | 1013.2 |
| 20260510101521 | 16 | 351 | 3.2 | 6.4 | 0.00 | 0.00 | 0.00 | 64 | 1013.1 |
| 20260510100016 | 16 | 348 | 1.6 | 6.4 | 0.00 | 0.00 | 0.00 | 64 | 1012.8 |
| 20260510094525 | 16 | 16 | 3.2 | 6.4 | 0.00 | 0.00 | 0.00 | 64 | 1012.7 |
| 20260510093012 | 16 | 48 | 3.2 | 6.4 | 0.00 | 0.00 | 0.00 | 64 | 1012.4 |
| 20260510091514 | 16 | 9 | 1.6 | 4.8 | 0.00 | 0.00 | 0.00 | 64 | 1012.4 |
| 20260510090009 | 16 | 351 | 1.6 | 6.4 | 0.00 | 0.00 | 0.00 | 65 | 1012.2 |
| 20260510084510 | 16 | 345 | 3.2 | 4.8 | 0.00 | 0.00 | 0.00 | 66 | 1012.0 |
| 20260510083004 | 16 | 356 | 1.6 | 4.8 | 0.00 | 0.00 | 0.00 | 65 | 1012.1 |
| 20260510081502 | 17 | 15 | 1.6 | 1.6 | 0.00 | 0.00 | 0.00 | 64 | 1012.0 |
| 20260510080104 | 17 | 15 | 0.0 | 1.6 | 0.00 | 0.00 | 0.00 | 63 | 1011.6 |
| 20260510074603 | 17 | 15 | 1.6 | 3.2 | 0.00 | 0.00 | 0.00 | 62 | 1011.4 |
| 20260510073055 | 17 | 15 | 1.6 | 3.2 | 0.00 | 0.00 | 0.00 | 61 | 1011.5 |
| 20260510071553 | 18 | 339 | 1.6 | 3.2 | 0.00 | 0.00 | 0.00 | 61 | 1011.6 |
| 20260510070055 | 18 | 340 | 0.0 | 3.2 | 0.00 | 0.00 | 0.00 | 60 | 1011.4 |
| 20260510064550 | 18 | 338 | 0.0 | 3.2 | 0.00 | 0.00 | 0.00 | 59 | 1011.3 |
| 20260510063046 | 18 | 288 | 1.6 | 3.2 | 0.00 | 0.00 | 0.00 | 56 | 1011.3 |
| 20260510061542 | 20 | 283 | 0.0 | 1.6 | 0.00 | 0.00 | 0.00 | 53 | 1010.8 |
| 20260510060049 | 20 | 284 | 0.0 | 1.6 | 0.00 | 0.00 | 0.00 | 52 | 1010.7 |
| 20260510054539 | 19 | 283 | 0.0 | 1.6 | 0.00 | 0.00 | 0.00 | 54 | 1010.5 |
| 20260510053036 | 19 | 283 | 0.0 | 1.6 | 0.00 | 0.00 | 0.00 | 54 | 1010.0 |
| 20260510051538 | 20 | 270 | 0.0 | 1.6 | 0.00 | 0.00 | 0.00 | 52 | 1009.7 |
| 20260510050030 | 20 | 270 | 0.0 | 1.6 | 0.00 | 0.00 | 0.00 | 52 | 1009.8 |
| 20260510044630 | 20 | 270 | 0.0 | 1.6 | 0.00 | 0.00 | 0.00 | 51 | 1009.7 |
| 20260510043029 | 20 | 269 | 0.0 | 3.2 | 0.00 | 0.00 | 0.00 | 51 | 1009.9 |
| 20260510041531 | 21 | 270 | 0.0 | 1.6 | 0.00 | 0.00 | 0.00 | 51 | 1010.0 |
| 20260510040027 | 21 | 270 | 0.0 | 1.6 | 0.00 | 0.00 | 0.00 | 49 | 1010.0 |
| 20260510034526 | 21 | 269 | 0.0 | 1.6 | 0.00 | 0.00 | 0.00 | 49 | 1009.8 |
| 20260510033026 | 21 | 270 | 0.0 | 3.2 | 0.00 | 0.00 | 0.00 | 51 | 1009.6 |
| 20260510031536 | 21 | 270 | 0.0 | 3.2 | 0.00 | 0.00 | 0.00 | 50 | 1009.4 |
| 20260510030124 | 21 | 280 | 0.0 | 3.2 | 0.00 | 0.00 | 0.00 | 51 | 1009.1 |
| 20260510024524 | 22 | 282 | 0.0 | 1.6 | 0.00 | 0.00 | 0.00 | 49 | 1010.0 |
| 20260510023038 | 22 | 276 | 0.0 | 3.2 | 0.00 | 0.00 | 0.00 | 49 | 1009.8 |
| 20260510021524 | 23 | 273 | 0.0 | 1.6 | 0.00 | 0.00 | 0.00 | 46 | 1009.7 |
| 20260510020022 | 23 | 256 | 0.0 | 3.2 | 0.00 | 0.00 | 0.00 | 42 | 1009.8 |
| 20260510014521 | 24 | 256 | 0.0 | 1.6 | 0.00 | 0.00 | 0.00 | 40 | 1009.4 |
| 20260510013021 | 24 | 256 | 0.0 | 3.2 | 0.00 | 0.00 | 0.00 | 36 | 1008.7 |
| 20260510011525 | 25 | 271 | 1.6 | 3.2 | 0.00 | 0.00 | 0.00 | 35 | 1007.6 |
| 20260510010025 | 25 | 103 | 1.6 | 6.4 | 0.00 | 0.00 | 0.00 | 34 | 1007.0 |
| 20260510004519 | 26 | 313 | 0.0 | 3.2 | 0.00 | 0.00 | 0.00 | 33 | 1006.6 |
| 20260510003019 | 26 | 259 | 1.6 | 3.2 | 0.00 | 0.00 | 0.00 | 32 | 1006.3 |
| 20260510001518 | 27 | 98 | 0.0 | 4.8 | 0.00 | 0.00 | 0.00 | 30 | 1006.0 |
| 20260510000017 | 27 | 113 | 1.6 | 6.4 | 0.00 | 0.00 | 0.00 | 28 | 1006.0 |
| 20260509234519 | 28 | 275 | 0.0 | 6.4 | 0.00 | 0.00 | 0.00 | 27 | 1006.2 |
| 20260509233016 | 28 | 265 | 1.6 | 9.7 | 0.00 | 0.00 | 0.00 | 25 | 1006.3 |
| 20260509231516 | 28 | 272 | 0.0 | 4.8 | 0.00 | 0.00 | 0.00 | 24 | 1006.4 |
| 20260509230015 | 29 | 280 | 0.0 | 3.2 | 0.00 | 0.00 | 0.00 | 23 | 1006.2 |
| 20260509224514 | 29 | 199 | 0.0 | 4.8 | 0.00 | 0.00 | 0.00 | 22 | 1006.3 |
| 20260509223014 | 30 | 322 | 0.0 | 4.8 | 0.00 | 0.00 | 0.00 | 21 | 1006.2 |
| 20260509221513 | 30 | 17 | 1.6 | 8.0 | 0.00 | 0.00 | 0.00 | 21 | 1006.1 |
| 20260509220113 | 31 | 261 | 1.6 | 6.4 | 0.00 | 0.00 | 0.00 | 21 | 1006.0 |
| 20260509214511 | 31 | 233 | 0.0 | 12.9 | 0.00 | 0.00 | 0.00 | 20 | 1006.2 |
| 20260509213011 | 31 | 258 | 0.0 | 3.2 | 0.00 | 0.00 | 0.00 | 20 | 1006.2 |
| 20260509211510 | 31 | 262 | 0.0 | 12.9 | 0.00 | 0.00 | 0.00 | 20 | 1006.4 |
| 20260509210007 | 31 | 299 | 0.0 | 3.2 | 0.00 | 0.00 | 0.00 | 20 | 1006.7 |
| 20260509204505 | 32 | 197 | 1.6 | 8.0 | 0.00 | 0.00 | 0.00 | 20 | 1006.9 |
| 20260509203003 | 32 | 168 | 0.0 | 6.4 | 0.00 | 0.00 | 0.00 | 21 | 1007.0 |
| 20260509201502 | 31 | 277 | 0.0 | 6.4 | 0.00 | 0.00 | 0.00 | 20 | 1007.2 |
| 20260509194600 | 32 | 273 | 0.0 | 4.8 | 0.00 | 0.00 | 0.00 | 20 | 1007.6 |
| 20260509193056 | 31 | 273 | 0.0 | 8.0 | 0.00 | 0.00 | 0.00 | 20 | 1007.8 |
| 20260509191555 | 31 | 272 | 0.0 | 3.2 | 0.00 | 0.00 | 0.00 | 20 | 1008.0 |
| 20260509190054 | 31 | 14 | 0.0 | 6.4 | 0.00 | 0.00 | 0.00 | 21 | 1008.1 |
| 20260509184550 | 31 | 320 | 0.0 | 4.8 | 0.00 | 0.00 | 0.00 | 22 | 1008.1 |
| 20260509183049 | 31 | 275 | 1.6 | 8.0 | 0.00 | 0.00 | 0.00 | 22 | 1008.3 |
| 20260509181554 | 31 | 260 | 0.0 | 6.4 | 0.00 | 0.00 | 0.00 | 22 | 1008.6 |
| 20260509180042 | 30 | 236 | 0.0 | 6.4 | 0.00 | 0.00 | 0.00 | 23 | 1008.9 |
| 20260509174541 | 30 | 273 | 0.0 | 3.2 | 0.00 | 0.00 | 0.00 | 24 | 1009.2 |
| 20260509173036 | 28 | 326 | 0.0 | 4.8 | 0.00 | 0.00 | 0.00 | 26 | 1009.4 |
| 20260509171533 | 28 | 261 | 0.0 | 4.8 | 0.00 | 0.00 | 0.00 | 27 | 1009.6 |
| 20260509170033 | 28 | 274 | 0.0 | 4.8 | 0.00 | 0.00 | 0.00 | 27 | 1009.7 |
| 20260509164531 | 28 | 274 | 0.0 | 1.6 | 0.00 | 0.00 | 0.00 | 27 | 1009.8 |
| 20260509163036 | 27 | 284 | 0.0 | 3.2 | 0.00 | 0.00 | 0.00 | 29 | 1009.9 |
| 20260509161526 | 26 | 287 | 1.6 | 3.2 | 0.00 | 0.00 | 0.00 | 32 | 1010.0 |
| 20260509160022 | 26 | 299 | 1.6 | 3.2 | 0.00 | 0.00 | 0.00 | 33 | 1009.8 |
| 20260509154518 | 25 | 278 | 0.0 | 3.2 | 0.00 | 0.00 | 0.00 | 36 | 1009.9 |
| 20260509153019 | 23 | 275 | 0.0 | 1.6 | 0.00 | 0.00 | 0.00 | 42 | 1009.8 |
| 20260509151509 | 22 | 275 | 0.0 | 1.6 | 0.00 | 0.00 | 0.00 | 49 | 1009.8 |
| 20260509150005 | 21 | 275 | 0.0 | 1.6 | 0.00 | 0.00 | 0.00 | 58 | 1009.9 |
| 20260509144601 | 20 | 273 | 0.0 | 1.6 | 0.00 | 0.00 | 0.00 | 62 | 1009.8 |
| 20260509143104 | 18 | 272 | 0.0 | 1.6 | 0.00 | 0.00 | 0.00 | 69 | 1009.9 |
| 20260509141552 | 17 | 273 | 0.0 | 1.6 | 0.00 | 0.00 | 0.00 | 72 | 1009.8 |
| 20260509140050 | 16 | 273 | 0.0 | 0.0 | 0.00 | 0.00 | 0.00 | 75 | 1009.7 |
| 20260509134551 | 15 | 273 | 0.0 | 1.6 | 0.00 | 0.00 | 0.00 | 76 | 1009.8 |
| 20260509133048 | 14 | 273 | 0.0 | 0.0 | 0.00 | 0.00 | 0.00 | 78 | 1009.9 |
| 20260509131536 | 13 | 272 | 0.0 | 1.6 | 0.00 | 0.00 | 0.00 | 78 | 1009.9 |
| 20260509130035 | 12 | 273 | 0.0 | 0.0 | 0.00 | 0.00 | 0.00 | 79 | 1009.7 |
| 20260509124534 | 12 | 273 | 0.0 | 0.0 | 0.00 | 0.00 | 0.00 | 80 | 1009.7 |
| 20260509123033 | 11 | 270 | 0.0 | 1.6 | 0.00 | 0.00 | 0.00 | 81 | 1009.5 |
| 20260509121537 | 11 | 271 | 0.0 | 1.6 | 0.00 | 0.00 | 0.00 | 82 | 1009.3 |
| 20260509120033 | 11 | 271 | 0.0 | 0.0 | 0.00 | 0.00 | 0.00 | 82 | 1009.2 |
| 20260509114528 | 11 | 271 | 0.0 | 0.0 | 0.00 | 0.00 | 0.00 | 82 | 1009.1 |
| 20260509113027 | 11 | 271 | 0.0 | 0.0 | 0.00 | 0.00 | 0.00 | 82 | 1008.8 |
| 20260509111527 | 10 | 271 | 0.0 | 0.0 | 0.00 | 0.00 | 0.00 | 82 | 1008.8 |
| 20260509110025 | 10 | 271 | 0.0 | 0.0 | 0.00 | 0.00 | 0.00 | 82 | 1008.7 |